Location: Christian Reformed Church
(43.0975°N, 93.8113°W)
Time: 04:33:59
(UTC+00:00)

Cosmos 44 - Pass Details

Date: 13 December 2025
Orbit: 572 x 778 km, 65.1° (Epoch: 13 January)

Event Time Altitude Azimuth Distance (km) Brightness Sun altitude
Rises 12:50:29 0° 218° (SW) 2,871 6.3 -8.6°
Reaches altitude 10° 12:52:41 10° 220° (SW) 1,998 5.5 -8.2°
Maximum altitude 12:57:12 71° 305° (NW) 695 3.1 -7.5°
Drops below altitude 10° 13:02:03 10° 30° (NNE) 2,144 5.9 -6.7°
Sets 13:04:30 0° 33° (NNE) 3,100 6.7 -6.3°
